Location: Hungerford
(51.4167°N, 1.5167°W)
Time: 07:33:01
(UTC+00:00)

Cosmos 1048 Rocket - Pass Details

Date: 26 January 2021
Orbit: 744 x 791 km, 74.0° (Epoch: 24 February)

Event Time Altitude Azimuth Distance (km) Brightness Sun altitude
Rises 18:10:21 0° 339° (NNW) 3,198 7.3 -13.1°
Reaches altitude 10° 18:13:00 10° 350° (N) 2,271 6.4 -13.5°
Maximum altitude 18:17:28 29° 51° (NE) 1,349 4.8 -14.2°
Enters shadow 18:19:41 21° 91° (E) 1,623 5.1 -14.5°
